Weather in Masalovka

Russia / Rostov Oblast     48°24′43″N   40°16′07″E
temp.,
°C
wind,
m/s
gust,
m/s
humid.,
%
clouds,
%
prec.,
mm/h
press.,
hPa
HPBL,
m
2 march, tue
tue200:00−1n017926 0.0 102822
03:00−2wsw228113 0.0 102852
06:00−2wsw378810 0.0 1026214
09:00+1wsw6107729 0.0 1025666
12:00+4w81158100 0.0 10221094
15:00+4wsw81259100 0.0 1019986
18:00+2wsw61371100 0.0 1016646
21:00+2wsw81577100 0.0 1015787
3 march, wed
wed300:00+1w71297100 0.4 1013641
03:00+1wnw61197100 1.8 1012576
06:00+1nnw61097100 1.1 1013556
09:00+1nnw7108091 1.3 1016896
12:00+2nw7107288 0.1 10171250
15:00+3nw8116394 0.3 10181508
18:00+1nw61161100 0.1 1020862
21:00−1wnw4107350 0.1 1022438
4 march, thu
thu400:00−1wnw48750 0.0 1023285
03:00−1wsw48780 0.0 1024255
06:00−1wsw510770 0.0 1023307
09:00+2wsw711650 0.0 1023665
12:00+5wsw710510 0.0 10211126
15:00+6wsw811500 0.0 10191319
18:00+3sw613640 0.0 1017395
21:00+2sw716740 0.0 1016467
5 march, fri
fri500:00+1sw7167530 0.0 1015527
03:00+2sw7168329 0.0 1015504
06:00+1sw7168143 0.0 1014489
09:00+3wsw8137744 0.0 1015672
12:00+5wsw7117379 0.0 1014912
15:00+8sw8126386 0.0 10131083
18:00+6sw7146618 0.0 1012726
21:00+4sw8167639 0.0 1012650
6 march, sat
sat600:00+3sw7178572 0.0 1011593
03:00+3sw8168768 0.0 1010637
06:00+4wsw71387100 0.0 1009551
09:00+4wsw5993100 0.2 1011426
12:00+2nw6892100 0.6 1012577
15:00+3nnw5763100 1.0 10131033
18:00+1nnw3663100 0.0 1014378
21:000nnw3671100 0.0 1016508